Ketchikan, AK

3:00 AM AKST on January 21, 2019 (GMT -0900)
Ketchikan International

Weather History for PAKT - December, 2018

Change the Weather History Date:

Saturday, December 1, 2018

  Actual Average Record
Temperature  
Mean Temperature 35 °F -  
Max Temperature 37 °F 42 °F 55 °F (1959)
Min Temperature 33 °F 31 °F 8 °F (1970)
Degree Days  
Heating Degree Days 30    
Moisture  
Dew Point 31 °F    
Average Humidity 82    
Maximum Humidity 92    
Minimum Humidity 76    
Precipitation  
Precipitation 0.00 in - - ()
Sea Level Pressure  
Sea Level Pressure 30.08 in    
Wind  
Wind Speed 8 mph (NW)    
Max Wind Speed 12 mph    
Max Gust Speed -    
Visibility 10 miles    
Events      
Averages and records for this station are not official NWS values.
T = Trace of Precipitation, MM = Missing Value Source: NWS Daily Summary

Daily Weather History Graph

Daily Weather History Graph

Search for Another Location

Airport or City:

Astronomy

Dec. 01, 2018 Rise Set
Actual Time 7:50 AM AKST 3:21 PM AKST
Civil Twilight 7:05 AM AKST 4:05 PM AKST
Nautical Twilight 6:18 AM AKST 4:52 PM AKST
Astronomical Twilight 5:34 AM AKST 5:36 PM AKST
Moon 12:31 AM AKST (12/1) 1:41 PM AKST (12/1)
Length of Visible Light 8h 59m
Length of Day
7h 31m
Waning Crescent, 30% of the Moon is Illuminated
Dec 1
Waning Crescent
Dec 6
New
Dec 15
First Quarter
Dec 22
Full
Dec 29
Last Quarter

Hourly Weather History & Observations

Time (AKST) Temp. Windchill Dew Point Humidity Pressure Visibility Wind Dir Wind Speed Gust Speed Precip Events Conditions
12:24 AM 37.0 °F 32.4 °F 32.0 °F 82% 29.98 in 10.0 mi NW 5.8 mph - N/A   Overcast
12:53 AM 37.9 °F 31.5 °F 32.0 °F 79% 29.99 in 10.0 mi NW 9.2 mph - N/A   Mostly Cloudy
1:26 AM 37.0 °F 30.4 °F 32.0 °F 82% 29.99 in 10.0 mi NW 9.2 mph - N/A   Mostly Cloudy
1:43 AM 37.0 °F 31.6 °F 32.0 °F 82% 30.00 in 10.0 mi NW 6.9 mph - N/A   Scattered Clouds
1:53 AM 37.0 °F 31.6 °F 32.0 °F 82% 30.00 in 10.0 mi NW 6.9 mph - N/A   Partly Cloudy
2:53 AM 37.0 °F 31.6 °F 30.9 °F 79% 30.01 in 10.0 mi NW 6.9 mph - N/A   Clear
3:53 AM 36.0 °F 30.3 °F 30.0 °F 79% 30.01 in 10.0 mi NW 6.9 mph - N/A   Clear
4:53 AM 36.0 °F 29.6 °F 30.0 °F 79% 30.01 in 10.0 mi NW 8.1 mph - N/A   Clear
5:53 AM 36.0 °F 29.6 °F 30.0 °F 79% 30.02 in 10.0 mi WNW 8.1 mph - N/A   Clear
6:53 AM 35.6 °F 29.9 °F 30.2 °F 81% 30.04 in 10.0 mi WNW 6.9 mph - N/A   Clear
7:53 AM 35.6 °F 29.2 °F 30.2 °F 81% 30.05 in 10.0 mi NW 8.1 mph - N/A   Clear
8:53 AM 37.0 °F 30.4 °F 30.0 °F 76% 30.06 in 10.0 mi NW 9.2 mph - N/A   Clear
9:53 AM 37.0 °F 31.6 °F 30.9 °F 79% 30.07 in 10.0 mi NW 6.9 mph - N/A   Clear
10:53 AM - - - N/A% 30.08 in 10.0 mi WNW 11.5 mph - N/A   Unknown
11:53 AM 37.9 °F 30.9 °F 30.9 °F 76% 30.09 in 10.0 mi WNW 10.4 mph - N/A   Clear
12:53 PM 37.9 °F 31.5 °F 30.9 °F 76% 30.09 in 9.0 mi NW 9.2 mph - N/A   Clear
1:53 PM 37.9 °F 31.5 °F 30.9 °F 76% 30.11 in 10.0 mi NW 9.2 mph - N/A   Clear
2:53 PM 37.0 °F 31.0 °F 30.9 °F 79% 30.12 in 10.0 mi WNW 8.1 mph - N/A   Clear
3:53 PM 36.0 °F 31.1 °F 30.9 °F 82% 30.13 in 10.0 mi WNW 5.8 mph - N/A   Clear
4:53 PM 35.1 °F 27.9 °F 30.9 °F 85% 30.15 in 10.0 mi NW 9.2 mph - N/A   Clear
5:53 PM 35.1 °F 28.6 °F 30.9 °F 85% 30.16 in 10.0 mi WNW 8.1 mph - N/A   Clear
6:53 PM 34.0 °F 28.8 °F 32.0 °F 92% 30.17 in 10.0 mi WNW 5.8 mph - N/A   Clear
7:53 PM 35.1 °F 29.3 °F 32.0 °F 89% 30.18 in 10.0 mi NW 6.9 mph - N/A   Clear
9:53 PM 34.0 °F 27.2 °F 30.9 °F 89% 30.20 in 10.0 mi NNW 8.1 mph - N/A   Clear
10:53 PM 33.1 °F 28.7 °F 30.9 °F 92% 30.21 in 10.0 mi West 4.6 mph - N/A   Clear
11:53 PM 33.1 °F 26.1 °F 30.0 °F 89% 30.22 in 10.0 mi NW 8.1 mph - N/A   Clear